Flag for Mexico Weather past 2 weeks in Mexico City, Federal District, Mexico

Now
64 °F

Scattered clouds.


Feels Like: 64 °F
Forecast: 54 / 71 °F
Wind: 5 mph from Northeast

Location: Mexico City / Licenci

Current Time: Aug 21, 2014 at 12:12:13 PM

Latest Report: Aug 21, 2014 at 10:45 AM


Visibility: 5 mi

Pressure: 30.40 "Hg

Humidity: 56%

Dew point: 48 °F

Location of Mexico CityLocation

Historic Weather in Mexico City — Graph

°F

Mexico City temperature yesterday

Maximum temperature yesterday: 75 °F (at 2:45 PM)
Minimum temperature yesterday: 57 °F (at 6:46 AM)
Average temperature yesterday: 65 °F

Past Weeks' High & Low Weather Summary

 TemperatureHumidityPressure
High81 °F (Aug 7, 2:48 PM)94% (Aug 7, 5:48 AM)30.42 "Hg (Aug 7, 5:48 AM)
Low54 °F (Aug 9, 7:20 AM)29% (Aug 17, 4:45 PM)29.70 "Hg (Aug 17, 3:46 PM)
Average63 °F70%30.23 "Hg
* Reported Aug 6 11:42 AM — Aug 21 10:45 AM, Mexico City, Weather by CustomWeather, © 2014

Note: Actual official high and low records may vary slightly from our data, if they occured in-between our weather recording intervals... More about our weather records

Advertising

Mexico City weather history for previous 24 hours

 ConditionsComfort  
Time TempWeatherWind HumidityBarometerVisibility
10:45 AM
Aug 21
64 °FScattered clouds.5 mph56%30.40 "Hg5 mi
10:21 AM64 °FScattered clouds.No wind52%30.40 "Hg5 mi
9:21 AM61 °FScattered clouds.3 mph63%30.39 "Hg5 mi
8:42 AM59 °FScattered clouds.No wind72%30.38 "Hg5 mi
8:20 AM55 °FBroken clouds.3 mph82%30.38 "Hg5 mi
7:46 AM55 °FPartly cloudy.7 mph82%30.37 "Hg5 mi
7:27 AM55 °FPartly cloudy.10 mph82%30.36 "Hg5 mi
6:45 AM57 °FPartly cloudy.3 mph82%29.85 "Hg7 mi
5:45 AM57 °FPartly cloudy.6 mph82%30.34 "Hg8 mi
4:47 AM57 °FPartly cloudy.6 mph82%30.32 "Hg8 mi
3:46 AM59 °FPartly cloudy.5 mph77%29.78 "Hg8 mi
2:48 AM61 °FPartly cloudy.6 mph72%30.33 "Hg8 mi
1:47 AM61 °FPassing clouds.9 mph77%30.35 "Hg12 mi
12:51 AM63 °FPassing clouds.9 mph68%29.84 "Hg12 mi
11:50 PM
Aug 20
63 °FPartly cloudy.10 mph68%30.37 "Hg12 mi
10:48 PM63 °FPassing clouds.14 mph77%30.35 "Hg12 mi
9:49 PM64 °FPartly cloudy.12 mph68%29.82 "Hg10 mi
8:44 PM66 °FCloudy.14 mph60%30.28 "Hg8 mi
8:21 PM66 °FSleet. Cloudy.N/A64%N/AN/A
7:45 PM66 °FThunderstorms. Cloudy.6 mph60%30.26 "Hg7 mi
7:12 PM68 °FSleet. Cloudy.N/A60%30.25 "HgN/A
6:17 PM75 °FSleet. Cloudy.N/A39%N/AN/A
5:44 PM72 °FCloudy.12 mph41%30.24 "Hg7 mi
4:49 PM75 °FCloudy.9 mph39%30.24 "Hg7 mi
3:42 PM75 °FBroken clouds.8 mph39%29.73 "Hg7 mi
2:45 PM75 °FBroken clouds.8 mph44%30.29 "Hg6 mi
Weather by CustomWeather, © 2014

See weather overviewHow to use our weather pages